Jersey, United Kingdom

1:04 PM BST on June 22, 2017 (GMT +0100)
Jersey

Weather History for EGJJ - January, 2013

Change the Weather History Date:

Monday, January 21, 2013

  Actual Average Record
Temperature  
Mean Temperature 36 °F -  
Max Temperature 41 °F 46 °F 51 °F (2002)
Min Temperature 32 °F 39 °F 26 °F (2017)
Degree Days  
Heating Degree Days 28    
Moisture  
Dew Point 35 °F    
Average Humidity 89    
Maximum Humidity 100    
Minimum Humidity 72    
Precipitation  
Precipitation 0.00 in - - ()
Sea Level Pressure  
Sea Level Pressure 29.36 in    
Wind  
Wind Speed 9 mph ()    
Max Wind Speed 15 mph    
Max Gust Speed -    
Visibility 6.3 miles    
Events Rain , Snow    
Averages and records for this station are not official NWS values.
T = Trace of Precipitation, MM = Missing Value Source: Averaged Metar Reports

Daily Weather History Graph

Daily Weather History Graph

Search for Another Location

Airport or City:

Trip Planner

Search our weather history database for the weather conditions in past years. The results will help you decide how hot, cold, wet, or windy it might be!

Date:

Astronomy

Jan. 21, 2013 Rise Set
Actual Time 7:53 AM GMT 4:47 PM GMT
Civil Twilight 7:17 AM GMT 5:23 PM GMT
Nautical Twilight 6:38 AM GMT 6:02 PM GMT
Astronomical Twilight 6:00 AM GMT 6:40 PM GMT
Moon 12:16 PM GMT (1/21) 3:08 AM GMT (1/21)
Length of Visible Light 10h 05m
Length of Day
8h 54m
Waxing Gibbous, 73% of the Moon is Illuminated
Jan 21
Waxing Gibbous
Jan 27
Full
Feb 3
Last Quarter
Feb 10
New
Feb 17
First Quarter

Hourly Weather History & Observations

Time (GMT) Temp. Windchill Dew Point Humidity Pressure Visibility Wind Dir Wind Speed Gust Speed Precip Events Conditions
12:00 AM 35 °F - 32 °F 84% 29.31 in 12 mi SSE 8.1 mph - -   Overcast
3:00 AM 37 °F - 31 °F 72% 29.27 in 16 mi SSE 10.4 mph - -   Scattered Clouds
3:50 AM 37.4 °F 30.8 °F 32.0 °F 81% 29.24 in - SSE 9.2 mph - N/A   Clear
4:20 AM 37.4 °F 30.3 °F 32.0 °F 81% 29.24 in 6.2 mi SSE 10.4 mph - N/A   Partly Cloudy
4:50 AM 37.4 °F 29.3 °F 33.8 °F 87% 29.24 in 6.2 mi SSE 12.7 mph - N/A   Scattered Clouds
5:20 AM 37.4 °F 28.9 °F 33.8 °F 87% 29.24 in 6.2 mi SSE 13.8 mph - N/A Rain , Snow Light Rain
5:50 AM 37.4 °F 29.3 °F 35.6 °F 93% 29.24 in 6.2 mi South 12.7 mph - N/A Rain Light Rain
6:00 AM 37 °F - 35 °F 87% 29.27 in 9 mi South 15.0 mph - - Rain Light Rain
6:20 AM 37.4 °F 30.3 °F 35.6 °F 93% 29.24 in 5.0 mi SSE 10.4 mph - N/A Rain Light Rain
6:50 AM 37.4 °F 30.3 °F 35.6 °F 93% 29.27 in 5.0 mi SSE 10.4 mph - N/A Rain Light Rain
7:20 AM 37.4 °F 29.8 °F 35.6 °F 93% 29.27 in 5.0 mi SSE 11.5 mph - N/A Rain Rain
7:50 AM 35.6 °F 27.1 °F 35.6 °F 100% 29.27 in 6.2 mi SSE 12.7 mph - N/A Rain Light Rain
8:20 AM 37.4 °F 29.8 °F 35.6 °F 93% 29.27 in 6.2 mi SE 11.5 mph - N/A Rain Light Rain
8:50 AM 37.4 °F 28.5 °F 35.6 °F 93% 29.27 in 6.2 mi ESE 15.0 mph - N/A   Mostly Cloudy
9:00 AM 37 °F - 35 °F 91% 29.29 in 9 mi ESE 13.8 mph - - Rain Light Rain
9:20 AM 37.4 °F 28.5 °F 35.6 °F 93% 29.27 in 6.2 mi East 15.0 mph - N/A   Mostly Cloudy
9:50 AM 39.2 °F 30.8 °F 35.6 °F 87% 29.30 in 6.2 mi East 15.0 mph - N/A Rain Light Rain
10:20 AM 37.4 °F 29.3 °F 35.6 °F 93% 29.30 in 6.2 mi East 12.7 mph - N/A Rain Light Rain
10:50 AM 37.4 °F 30.3 °F 35.6 °F 93% 29.33 in 5.0 mi East 10.4 mph - N/A Rain Rain
11:20 AM 37.4 °F 33.8 °F 35.6 °F 93% 29.33 in 5.0 mi ENE 4.6 mph - N/A Rain Rain
11:50 AM 35.6 °F 31.7 °F 33.8 °F 93% 29.36 in 3.7 mi ENE 4.6 mph - N/A Rain , Snow Rain
12:00 PM 36 °F - 34 °F 90% 29.37 in 4 mi NE 4.6 mph - - Snow Heavy Snow
12:20 PM 35.6 °F - 33.8 °F 93% 29.36 in 4.3 mi NE 2.3 mph - N/A Rain , Snow Rain
12:50 PM 33.8 °F - 33.8 °F 100% 29.36 in 5.0 mi East 2.3 mph - N/A Rain Light Rain
1:20 PM 35.6 °F 32.8 °F 33.8 °F 93% 29.39 in 5.0 mi West 3.5 mph - N/A Rain , Snow Light Rain
1:50 PM 35.6 °F 32.8 °F 35.6 °F 100% 29.39 in 4.3 mi Variable 3.5 mph - N/A Rain Light Rain
2:20 PM 37.4 °F 28.9 °F 37.4 °F 100% 29.39 in 4.3 mi NW 13.8 mph - N/A Rain Rain
2:50 PM 37.4 °F 29.8 °F 37.4 °F 100% 29.39 in 6.2 mi NW 11.5 mph - N/A Rain Light Rain
3:00 PM 38 °F - 36 °F 89% 29.42 in 7 mi NW 11.5 mph - - Rain Light Rain
3:20 PM 37.4 °F 31.4 °F 35.6 °F 93% 29.42 in 6.2 mi NW 8.1 mph - N/A   Partly Cloudy
3:50 PM 39.2 °F 31.6 °F 33.8 °F 81% 29.42 in 6.2 mi NW 12.7 mph - N/A   Partly Cloudy
4:20 PM 39.2 °F 32.0 °F 33.8 °F 81% 29.44 in 6.2 mi NW 11.5 mph - N/A   Mostly Cloudy
4:50 PM 39.2 °F 30.8 °F 33.8 °F 81% 29.47 in 6.2 mi WNW 15.0 mph - N/A   Mostly Cloudy
5:20 PM 39.2 °F 33.6 °F 32.0 °F 75% 29.47 in 6.2 mi WNW 8.1 mph - N/A   Scattered Clouds
5:50 PM 37.4 °F 31.4 °F 32.0 °F 81% 29.47 in 6.2 mi WNW 8.1 mph - N/A   Mostly Cloudy
6:00 PM 38 °F - 33 °F 77% 29.50 in 25 mi WNW 5.8 mph - -   Partly Cloudy
6:20 PM 39.2 °F 34.2 °F 33.8 °F 81% 29.47 in 6.2 mi West 6.9 mph - N/A   Scattered Clouds
6:50 PM 37.4 °F 33.8 °F 33.8 °F 87% 29.47 in 6.2 mi WSW 4.6 mph - N/A   Mostly Cloudy
7:20 PM 39.2 °F 35.9 °F 33.8 °F 81% 29.47 in 6.2 mi SW 4.6 mph - N/A   Scattered Clouds
7:50 PM 39.2 °F 33.6 °F 35.6 °F 87% 29.47 in 6.2 mi SSW 8.1 mph - N/A   Partly Cloudy
8:20 PM 37.4 °F 33.8 °F 35.6 °F 93% 29.47 in 6.2 mi South 4.6 mph - N/A   Partly Cloudy
8:50 PM 37.4 °F 32.1 °F 35.6 °F 93% 29.47 in 6.2 mi South 6.9 mph - N/A   Partly Cloudy
9:00 PM 38 °F - 37 °F 93% 29.49 in 28 mi South 8.1 mph - -   Mostly Cloudy
9:20 PM 41.0 °F 35.2 °F 37.4 °F 87% 29.47 in 6.2 mi South 9.2 mph - N/A   Scattered Clouds
9:50 PM 41.0 °F 34.7 °F 37.4 °F 87% 29.47 in 6.2 mi South 10.4 mph - N/A   Partly Cloudy